Skip Page Navigation
NASA JPL Caltech
NASA Logo - Jet Propulsion Laboratory + View the NASA Portal
+ Near-Earth Object (NEO) Program
Search JPL
JPL Home Earth Solar System Stars & Galaxies Technology
JPL Solar System Dynamics
BODIES ORBITS EPHEMERIDES TOOLS PHYSICAL DATA DISCOVERY FAQ SITE MAP
JPL Small-Body Database Browser
Search: [ help ]  
5002 Marnix (1987 SS3)
Classification: Main-belt Asteroid          SPK-ID: 2005002
Ephemeris | Orbit Diagram | Orbital Elements | Physical Parameters | Discovery Circumstances ]

[ hide orbit diagram ]
Orbit Diagram
Note: Make sure you have Java enabled on your browser to see the applet. This applet is provided as a 3D orbit visualization tool. The applet was implemented using 2-body methods, and hence should not be used for determining accurate long-term trajectories (over several years or decades) or planetary encounter circumstances. For accurate long-term ephemerides, please instead use our Horizons system.
Orbit Viewer

Additional Notes: the orbits shown in the applet are color coded. The planets are white lines, and the asteroid/comet is a blue line. The bright white line indicates the portion of the orbit that is above the ecliptic plane, and the darker portion is below the ecliptic plane. Likewise for the asteroid/comet orbit, the light blue indicates the portion above the ecliptic plane, and the dark blue the portion below the ecliptic plane.

Orbit Viewer applet originally written and kindly provided by Osamu Ajiki (AstroArts), and further modified by Ron Baalke (JPL).


Orbital Elements at Epoch 2456400.5 (2013-Apr-18.0) TDB
Reference: MPO253397 (heliocentric ecliptic J2000)
 Element Value Uncertainty (1-sigma)   Units 
e 0.2052265 n/a  
a 2.3283521 n/a AU
q 1.8505125 n/a AU
i 1.59168 n/a deg
node 108.03652 n/a deg
peri 171.90228 n/a deg
M 120.38089 n/a deg
tp 2455966.5632306
(2012-Feb-09.06323060)
n/a JED
period 1297.6913278
3.55
n/a
n/a
d
yr
n 0.27741574 n/a deg/d
Q 2.8061917 n/a AU
  Orbit Determination Parameters
   # obs. used (total)      1145  
   first obs. used      1951-??-??  
   last obs. used      2013-02-05  
   # oppositions      16  
   planetary ephem.      DE403  
   condition code      0  
   fit RMS      0.54  
   data source      MPC:mpn  
   producer      MPCLINUX  

Additional Information
 T_jup = 3.544 

Ephemeris | Orbit Diagram | Orbital Elements | Physical Parameters | Discovery Circumstances ]

Physical Parameter Table
Parameter Symbol Value Units Sigma Reference Notes
absolute magnitude H 13.4 mag n/a PDS3 (MPC 28112)  

5002 Marnix (1987 SS3)          Discovered 1987-Sep-20 by Elst, E. W. at Rozhen
Reference: DISCOVERY.DBLast Updated: 2003-08-29

Alternate Designations
 1987 SS3 = 1951 JN = 1983 GD2 
Ephemeris | Orbit Diagram | Orbital Elements | Physical Parameters | Discovery Circumstances ]
ABOUT SSD CREDITS/AWARDS PRIVACY/COPYRIGHT GLOSSARY LINKS
FirstGov 2013-May-26 03:30 UT
(server date/time)  
NASA Home Page
Site Manager:   Donald K. Yeomans
Webmaster  Alan B. Chamberlin